Home   Weather   's-Hertogenbosch   Past weeks

Flag for Netherlands Past Weather in 's-Hertogenbosch, Netherlands — Yesterday and Last 2 Weeks

43 °F


Feels Like: 39 °F
Forecast: 46 / 51 °F
Wind: 7 mph from Northeast

Location: Volkel

Current Time: Oct 24, 2016 at 9:09:57 AM

Latest Report: Oct 24, 2016 at 8:55 AM

Visibility: 4 mi

Pressure: 29.89 "Hg

Humidity: 93%

Dew Point: 41 °F

Location of 's-HertogenboschLocation

Past Weather in 's-Hertogenbosch — Graph


's-Hertogenbosch Temperature Yesterday

Maximum temperature yesterday: 45 °F (at 2:55 PM)
Minimum temperature yesterday: 30 °F (at 1:55 AM)
Average temperature yesterday: 37 °F

High & Low Weather Summary for the Past Weeks

High66 °F (Oct 16, 2:55 PM)100% (Oct 9, 7:25 AM)30.30 "Hg (Oct 9, 7:25 AM)
Low30 °F (Oct 23, 1:55 AM)51% (Oct 9, 1:55 PM)29.65 "Hg (Oct 15, 1:02 AM)
Average48 °F87%30.01 "Hg
* Reported Oct 9 7:25 AM — Oct 24 7:55 AM, 's-Hertogenbosch, Weather by CustomWeather, © 2016

Note: Actual official high and low records may vary slightly from our data, if they occured in-between our weather recording intervals... More about our weather records


's-Hertogenbosch Weather History for the Previous 24 Hours

Scroll right to see more
Time TempWeatherWind HumidityBarometerVisibility
7:55 AM
Mon, Oct 24
43 °FFog.7 mph93%29.89 "Hg3 mi
7:25 AM43 °FFog.6 mph93%29.89 "Hg3 mi
7:01 AM43 °FFog.6 mph93%29.92 "Hg3 mi
6:25 AM43 °FFog.6 mph93%29.89 "Hg3 mi
5:55 AM43 °FFog.6 mph93%29.89 "Hg2 mi
5:25 AM43 °FFog.6 mph93%29.89 "Hg3 mi
4:55 AM43 °FFog.5 mph93%29.89 "Hg2 mi
4:25 AM43 °FFog.5 mph93%29.89 "Hg2 mi
3:55 AM43 °FFog.6 mph93%29.89 "Hg2 mi
3:25 AM43 °FFog.5 mph93%29.89 "Hg2 mi
3:03 AM41 °FFog.2 mph100%29.89 "Hg2 mi
2:55 AM41 °FFog.3 mph100%29.89 "Hg2 mi
2:25 AM41 °FFog.5 mph100%29.89 "Hg2 mi
1:55 AM41 °FFog.3 mph100%29.89 "Hg2 mi
1:25 AM39 °FFog.3 mph100%29.89 "Hg2 mi
12:55 AM39 °FFog.5 mph100%29.89 "Hg2 mi
12:25 AM39 °FFog.5 mph100%29.89 "Hg2 mi
11:55 PM
Sun, Oct 23
39 °FFog.3 mph100%29.89 "Hg1 mi
11:25 PM39 °FFog.2 mph93%29.89 "Hg1 mi
10:55 PM39 °FFog.3 mph100%29.89 "Hg1 mi
9:55 PM39 °FFog.2 mph100%29.89 "Hg0 mi
9:25 PM39 °FFog.2 mph100%29.92 "Hg0 mi
8:55 PM41 °FFog.3 mph100%29.89 "Hg0 mi
8:25 PM41 °FFog.3 mph100%29.89 "Hg0 mi
7:55 PM41 °FFog.5 mph100%29.89 "Hg0 mi
7:25 PM41 °FFog.3 mph100%29.89 "Hg1 mi
7:02 PM41 °FFog.5 mph100%29.89 "Hg1 mi
6:55 PM43 °FFog.2 mph93%29.89 "Hg1 mi
6:25 PM43 °FFog.6 mph93%29.92 "Hg1 mi
5:55 PM43 °FFog.6 mph93%29.89 "Hg1 mi
5:25 PM43 °FFog.6 mph93%29.89 "Hg1 mi
4:55 PM43 °FFog.7 mph93%29.89 "Hg1 mi
4:25 PM45 °FFog.8 mph87%29.89 "Hg2 mi
3:55 PM45 °FFog.7 mph87%29.89 "Hg2 mi
3:25 PM45 °FFog.6 mph87%29.89 "Hg2 mi
2:55 PM45 °FFog.6 mph87%29.92 "Hg2 mi
2:25 PM43 °FFog.7 mph93%29.92 "Hg2 mi
1:55 PM43 °FFog.6 mph93%29.92 "Hg1 mi
1:25 PM43 °FFog.6 mph93%29.92 "Hg2 mi
12:55 PM43 °FFog.5 mph93%29.92 "Hg1 mi
12:25 PM41 °FFog.6 mph93%29.92 "Hg0 mi
11:55 AM39 °FFog.5 mph100%29.92 "Hg0 mi
11:25 AM39 °FFog.5 mph100%29.92 "Hg0 mi
10:55 AM37 °FFog.2 mph100%29.95 "Hg0 mi
10:25 AM36 °FFog.2 mph100%29.95 "Hg0 mi
9:55 AM34 °FSnow flurries. Low clouds.3 mph100%29.95 "Hg0 mi
9:25 AM32 °FFog.2 mph100%29.95 "Hg0 mi
Weather by CustomWeather, © 2016

See weather overviewHow to use our weather pages